Location: downtown San Diego
(32.7310°N, 117.1990°W)
Time: 20:07:16
(UTC-08:00)

Cosmos 1386 Rocket - Pass Details

Date: 19 May 2017
Orbit: 929 x 1007 km, 83.0° (Epoch: 24 November)

Event Time Altitude Azimuth Distance (km) Brightness Sun altitude
Rises 20:28:54 0° 356° (N) 3,668 8.1 -9.2°
Reaches altitude 10° 20:31:27 10° 358° (N) 2,706 7.3 -9.7°
Maximum altitude 20:37:38 76° 84° (E) 981 4.4 -10.8°
Drops below altitude 10° 20:43:40 10° 170° (S) 2,643 6.4 -11.8°
Enters shadow 20:45:29 - 171° (S) 3,333 6.9 -12.2°
